Location: Newark
(45.9456°N, 15.4064°E)
Time: 20:48:20
(UTC+00:00)

SR - Pass Details

Date: 26 January 2020
Orbit: 575 x 881 km, 66.7° (Epoch: 19 February)

Event Time Altitude Azimuth Distance (km) Brightness Sun altitude
Rises 21:29:20 0° 224° (SW) 3,412 - -55.6°
Reaches altitude 10° 21:31:49 10° 228° (SW) 2,503 - -55.9°
Maximum altitude 21:37:36 59° 308° (NW) 1,015 - -56.6°
Drops below altitude 10° 21:43:27 10° 28° (NNE) 2,535 - -57.3°
Sets 21:45:59 0° 32° (NNE) 3,459 - -57.6°
